Date String (YYYY-MM-DD hh:mm:ss) UTC,Instrument flags,Ambient pressure (hPa),Sample flow (lpm),Bypass flow (lpm),Sample temperature (°C),Ambient temperature (°C),ASC tube jacket temperature (°C),LED temperature (°C),Box temperature (°C),Sample RH (%),Span deviation,Mass concentration (μg/m³),Mass concentration (μg/m³),Mass concentration (μg/m³)
DateTimeUTC,F1_M11,P_M11,Q1_M11,Q2_M11,T1_M11,T2_M11,T3_M11,T4_M11,T5_M11,U1_M11,ZSPAN_M11,X0_M11,X2_M11,X1_M11
2022-07-21 07:00:00,,0827.9,4.99,0.00,29.6,28.3,00.0,38.4,31.5,24.1,0000.0,0017.90,0006.32,0004.36
2022-07-21 07:01:00,,0828.0,5.00,0.00,29.6,28.4,00.0,38.4,31.6,24.2,0000.0,0019.18,0006.27,0004.35
2022-07-21 07:02:00,,0827.9,5.00,0.00,29.7,28.5,00.0,38.4,31.6,24.1,0000.0,0020.31,0006.26,0004.34
2022-07-21 07:03:00,,0828.0,4.99,0.00,29.7,28.6,00.0,38.4,31.7,23.7,0000.0,0019.96,0006.20,0004.34
2022-07-21 07:04:00,,0827.9,5.01,0.00,29.7,28.6,00.0,38.4,31.7,23.7,0000.0,0019.91,0006.15,0004.32
2022-07-21 07:05:00,,0827.9,5.01,0.00,29.7,28.7,00.0,38.4,31.7,23.9,0000.0,0020.67,0006.15,0004.32
2022-07-21 07:06:00,,0827.9,4.99,0.00,29.8,28.6,00.0,38.4,31.7,24.1,0000.0,0020.99,0006.21,0004.32
2022-07-21 07:07:00,,0827.9,5.01,0.00,29.8,27.9,00.0,38.4,31.7,24.2,0000.0,0021.17,0006.27,0004.33
2022-07-21 07:08:00,,0828.0,5.00,0.00,29.7,27.4,00.0,38.3,31.6,23.9,0000.0,0021.82,0006.31,0004.34
2022-07-21 07:09:00,,0827.8,5.00,0.00,29.7,27.4,00.0,38.3,31.4,24.2,0000.0,0021.85,0006.37,0004.33
2022-07-21 07:10:00,,0827.9,5.00,0.00,29.6,27.4,00.0,38.3,31.4,24.4,0000.0,0021.43,0006.32,0004.32
2022-07-21 07:11:00,,0827.9,4.99,0.00,29.6,27.6,00.0,38.3,31.4,24.3,0000.0,0021.31,0006.23,0004.31
2022-07-21 07:12:00,,0827.9,5.01,0.00,29.6,27.7,00.0,38.4,31.4,24.1,0000.0,0020.84,0006.24,0004.32
2022-07-21 07:13:00,,0827.9,5.00,0.00,29.6,27.9,00.0,38.4,31.4,24.2,0000.0,0019.66,0006.27,0004.33
2022-07-21 07:14:00,,0828.0,5.00,0.00,29.6,28.0,00.0,38.4,31.4,23.8,0000.0,0018.78,0006.27,0004.33
2022-07-21 07:15:00,,0827.9,5.00,0.00,29.6,28.1,00.0,38.4,31.5,23.9,0000.0,0017.72,0006.25,0004.34
2022-07-21 07:16:00,,0827.9,5.01,0.00,29.6,28.2,00.0,38.4,31.5,23.8,0000.0,0016.92,0006.20,0004.34
2022-07-21 07:17:00,,0827.9,4.99,0.00,29.6,28.3,00.0,38.4,31.5,23.6,0000.0,0016.16,0006.22,0004.34
2022-07-21 07:18:00,,0827.9,5.00,0.00,29.6,28.4,00.0,38.4,31.6,23.5,0000.0,0015.51,0006.19,0004.34
2022-07-21 07:19:00,,0827.9,4.99,0.00,29.7,28.5,00.0,38.4,31.6,23.3,0000.0,0014.70,0006.18,0004.34
2022-07-21 07:20:00,,0827.9,5.01,0.00,29.7,28.6,00.0,38.4,31.7,23.1,0000.0,0014.99,0006.14,0004.33
2022-07-21 07:21:00,,0828.0,5.00,0.00,29.7,28.7,00.0,38.5,31.7,23.0,0000.0,0015.75,0006.19,0004.33
2022-07-21 07:22:00,,0828.0,4.99,0.00,29.8,28.7,00.0,38.5,31.8,22.9,0000.0,0016.57,0006.26,0004.34
2022-07-21 07:23:00,,0827.9,5.00,0.00,29.8,28.4,00.0,38.4,31.7,22.7,0000.0,0017.09,0006.22,0004.34
2022-07-21 07:24:00,,0827.9,5.01,0.00,29.8,27.4,00.0,38.4,31.6,22.7,0000.0,0017.64,0006.20,0004.33
2022-07-21 07:25:00,,0827.9,4.99,0.00,29.7,26.8,00.0,38.3,31.4,22.6,0000.0,0018.65,0006.14,0004.31
2022-07-21 07:26:00,,0827.9,5.01,0.00,29.6,26.8,00.0,38.3,31.3,22.6,0000.0,0018.70,0006.17,0004.31
2022-07-21 07:27:00,,0828.0,4.99,0.00,29.5,26.9,00.0,38.3,31.2,22.7,0000.0,0018.65,0006.18,0004.30
2022-07-21 07:28:00,,0828.0,4.99,0.00,29.5,27.0,00.0,38.3,31.2,22.7,0000.0,0019.72,0006.13,0004.28
2022-07-21 07:29:00,,0828.0,5.01,0.00,29.4,27.2,00.0,38.3,31.2,22.9,0000.0,0019.85,0006.13,0004.26
2022-07-21 07:30:00,,0828.0,5.00,0.00,29.4,27.4,00.0,38.2,31.2,23.0,0000.0,0019.69,0006.13,0004.24
2022-07-21 07:31:00,,0828.0,5.00,0.00,29.4,27.6,00.0,38.2,31.2,22.8,0000.0,0019.89,0006.13,0004.22
2022-07-21 07:32:00,,0828.0,4.99,0.00,29.4,27.7,00.0,38.2,31.3,22.9,0000.0,0019.69,0006.08,0004.21
2022-07-21 07:33:00,,0828.1,5.01,0.00,29.4,27.9,00.0,38.2,31.3,23.1,0000.0,0019.44,0006.06,0004.20
2022-07-21 07:34:00,,0828.1,5.00,0.00,29.4,28.0,00.0,38.2,31.3,23.0,0000.0,0018.49,0006.11,0004.18
2022-07-21 07:35:00,,0828.1,4.99,0.00,29.5,28.1,00.0,38.2,31.4,23.1,0000.0,0017.78,0006.10,0004.17
2022-07-21 07:36:00,,0828.2,5.01,0.00,29.5,28.2,00.0,38.3,31.4,23.5,0000.0,0016.73,0006.12,0004.16
2022-07-21 07:37:00,,0828.1,4.99,0.00,29.5,28.3,00.0,38.3,31.4,23.3,0000.0,0017.09,0006.16,0004.17
2022-07-21 07:38:00,,0828.1,5.00,0.00,29.5,28.4,00.0,38.3,31.5,23.3,0000.0,0017.34,0006.19,0004.18
2022-07-21 07:39:00,,0828.1,5.00,0.00,29.6,28.4,00.0,38.3,31.5,23.2,0000.0,0016.23,0006.21,0004.19
2022-07-21 07:40:00,,0828.1,5.01,0.00,29.6,28.5,00.0,38.3,31.6,23.3,0000.0,0016.19,0006.22,0004.19
2022-07-21 07:41:00,,0828.1,4.99,0.00,29.6,28.6,00.0,38.3,31.6,23.4,0000.0,0016.53,0006.22,0004.19
2022-07-21 07:42:00,,0828.1,5.01,0.00,29.6,28.6,00.0,38.4,31.6,24.3,0000.0,0017.40,0006.27,0004.21
2022-07-21 07:43:00,,0828.1,4.98,0.00,29.7,28.7,00.0,38.4,31.7,24.5,0000.0,0017.80,0006.31,0004.23
2022-07-21 07:44:00,,0828.2,5.01,0.00,29.7,28.7,00.0,38.4,31.7,23.8,0000.0,0017.87,0006.31,0004.23
2022-07-21 07:45:00,,0828.1,4.99,0.00,29.7,28.8,00.0,38.4,31.7,24.1,0000.0,0017.70,0006.32,0004.25
2022-07-21 07:46:00,,0828.1,5.01,0.00,29.8,28.8,00.0,38.5,31.8,24.7,0000.0,0017.47,0006.29,0004.28
2022-07-21 07:47:00,,0828.1,5.00,0.00,29.8,28.4,00.0,38.4,31.7,24.7,0000.0,0017.45,0006.31,0004.30
2022-07-21 07:48:00,,0828.1,5.00,0.00,29.8,27.7,00.0,38.4,31.6,24.8,0000.0,0017.60,0006.31,0004.33
2022-07-21 07:49:00,,0828.1,5.01,0.00,29.7,27.4,00.0,38.4,31.5,25.0,0000.0,0018.91,0006.25,0004.34
2022-07-21 07:50:00,,0828.1,5.00,0.00,29.7,27.4,00.0,38.4,31.4,25.0,0000.0,0018.77,0006.23,0004.35
2022-07-21 07:51:00,,0828.2,4.99,0.00,29.6,27.5,00.0,38.4,31.4,24.6,0000.0,0018.91,0006.24,0004.36
2022-07-21 07:52:00,,0828.2,5.00,0.00,29.6,27.6,00.0,38.4,31.4,24.5,0000.0,0018.98,0006.28,0004.38
2022-07-21 07:53:00,,0828.2,5.00,0.00,29.6,27.7,00.0,38.4,31.4,24.8,0000.0,0018.01,0006.31,0004.40
2022-07-21 07:54:00,,0828.2,4.99,0.00,29.6,27.9,00.0,38.4,31.4,25.3,0000.0,0016.99,0006.35,0004.41
2022-07-21 07:55:00,,0828.3,5.02,0.00,29.6,28.0,00.0,38.4,31.4,25.5,0000.0,0016.37,0006.36,0004.44
2022-07-21 07:56:00,,0828.3,5.00,0.00,29.6,28.2,00.0,38.4,31.5,26.6,0000.0,0016.34,0006.38,0004.46
2022-07-21 07:57:00,,0828.3,4.99,0.00,29.6,28.3,00.0,38.4,31.5,27.6,0000.0,0016.98,0006.36,0004.46
2022-07-21 07:58:00,,0828.3,5.01,0.00,29.6,28.4,00.0,38.4,31.6,27.6,0000.0,0017.63,0006.39,0004.49
2022-07-21 07:59:00,,0828.3,5.01,0.00,29.7,28.4,00.0,38.4,31.6,27.5,0000.0,0017.66,0006.34,0004.51
